OE5OVL-13 Weather Reports


time (UTC)temp
F
wind
direction
speed
knots
gust
knots
rain 1hr
in
rain 24hr
in
rain mn
in
humidity
%
barometer
mb
20260508024756 49 0.0 0.0 0.00 0.00 0.00 84 716.7
20260508023239 49 0.0 0.0 0.00 0.00 0.00 83 716.8
20260508021728 49 0.0 0.0 0.00 0.00 0.00 81 717.1
20260508014704 50 0.0 0.0 0.00 0.00 0.00 83 717.3
20260508013152 50 0.0 0.0 0.00 0.00 0.00 83 717.3
20260508011642 50 0.0 0.0 0.00 0.00 0.00 81 717.4
20260508003106 50 0.0 0.0 0.00 0.00 0.00 79 717.9
20260508001554 51 0.0 0.0 0.00 0.00 0.00 79 718.1
20260508000046 51 0.0 0.0 0.00 0.00 0.00 78 718.3
20260507234537 51 0.0 0.0 0.00 0.00 0.00 77 718.5
20260507231509 52 0.0 0.0 0.00 0.00 0.00 76 719.0
20260507225955 53 0.0 0.0 0.00 0.00 0.00 75 719.2
20260507224445 53 0.0 0.0 0.00 0.00 0.00 73 719.8
20260507222932 53 0.0 0.0 0.00 0.00 0.00 74 719.7
20260507221420 53 0.0 0.0 0.00 0.00 0.00 74 719.4
20260507215908 53 0.0 0.0 0.00 0.00 0.00 73 719.7
20260507214356 55 0.0 0.0 0.00 0.00 0.00 72 720.5
20260507212844 55 0.0 0.0 0.00 0.00 0.00 71 720.6
20260507211333 55 0.0 0.0 0.00 0.00 0.00 71 720.8
20260507205821 56 0.0 0.0 0.00 0.00 0.00 70 721.4
20260507204309 56 0.0 0.0 0.00 0.00 0.00 71 721.4
20260507202757 57 0.0 0.0 0.00 0.00 0.00 69 721.8
20260507201246 57 0.0 0.0 0.00 0.00 0.00 70 721.9
20260507195734 58 0.0 0.0 0.00 0.00 0.00 68 722.4
20260507194222 59 0.0 0.0 0.00 0.00 0.00 67 723.0
20260507192710 60 0.0 0.0 0.00 0.00 0.00 64 724.0
20260507191159 61 0.0 0.0 0.00 0.00 0.00 64 724.2
20260507185647 61 0.0 0.0 0.00 0.00 0.00 63 724.4
20260507184135 62 0.0 0.0 0.00 0.00 0.00 59 725.2
20260507182624 63 0.0 0.0 0.00 0.00 0.00 57 725.9
20260507181112 64 0.0 0.0 0.00 0.00 0.00 55 726.5
20260507175600 65 0.0 0.0 0.00 0.00 0.00 54 726.9
20260507174048 65 0.0 0.0 0.00 0.00 0.00 52 727.1
20260507172537 66 0.0 0.0 0.00 0.00 0.00 50 727.8
20260507171025 67 0.0 0.0 0.00 0.00 0.00 49 728.4
20260507165513 72 0.0 0.0 0.00 0.00 0.00 43 731.4
20260507162451 67 0.0 0.0 0.00 0.00 0.00 48 728.6
20260507160938 66 0.0 0.0 0.00 0.00 0.00 50 727.7
20260507155426 66 0.0 0.0 0.00 0.00 0.00 49 728.1
20260507153914 67 0.0 0.0 0.00 0.00 0.00 48 728.1
20260507152403 67 0.0 0.0 0.00 0.00 0.00 47 728.2
20260507150851 67 0.0 0.0 0.00 0.00 0.00 46 728.2
20260507145339 67 0.0 0.0 0.00 0.00 0.00 45 728.6
20260507143827 68 0.0 0.0 0.00 0.00 0.00 44 728.8
20260507142315 68 0.0 0.0 0.00 0.00 0.00 44 729.1
20260507140804 68 0.0 0.0 0.00 0.00 0.00 44 728.9
20260507135252 68 0.0 0.0 0.00 0.00 0.00 43 729.2
20260507133740 68 0.0 0.0 0.00 0.00 0.00 42 729.2
20260507132229 71 0.0 0.0 0.00 0.00 0.00 40 730.8
20260507130717 71 0.0 0.0 0.00 0.00 0.00 38 730.8
20260507125205 71 0.0 0.0 0.00 0.00 0.00 40 731.0
20260507123653 72 0.0 0.0 0.00 0.00 0.00 41 731.6
20260507122142 71 0.0 0.0 0.00 0.00 0.00 40 731.1
20260507120630 72 0.0 0.0 0.00 0.00 0.00 39 731.4
20260507115118 73 0.0 0.0 0.00 0.00 0.00 40 732.2
20260507113606 73 0.0 0.0 0.00 0.00 0.00 40 732.1
20260507112054 73 0.0 0.0 0.00 0.00 0.00 41 732.4
20260507110543 72 0.0 0.0 0.00 0.00 0.00 42 731.6
20260507105031 68 0.0 0.0 0.00 0.00 0.00 46 729.0
20260507103519 68 0.0 0.0 0.00 0.00 0.00 47 728.8
20260507102008 68 0.0 0.0 0.00 0.00 0.00 47 729.1
20260507100456 68 0.0 0.0 0.00 0.00 0.00 46 728.9
20260507094944 67 0.0 0.0 0.00 0.00 0.00 47 728.3
20260507093432 66 0.0 0.0 0.00 0.00 0.00 49 727.8
20260507091921 66 0.0 0.0 0.00 0.00 0.00 50 727.7
20260507090409 65 0.0 0.0 0.00 0.00 0.00 49 727.1
20260507084857 64 0.0 0.0 0.00 0.00 0.00 50 726.5
20260507083345 64 0.0 0.0 0.00 0.00 0.00 51 726.1
20260507081834 63 0.0 0.0 0.00 0.00 0.00 54 726.0
20260507080322 63 0.0 0.0 0.00 0.00 0.00 56 725.6
20260507074810 62 0.0 0.0 0.00 0.00 0.00 56 725.1
20260507073258 61 0.0 0.0 0.00 0.00 0.00 60 724.7
20260507071747 61 0.0 0.0 0.00 0.00 0.00 63 724.5
20260507070235 60 0.0 0.0 0.00 0.00 0.00 65 723.9
20260507064723 59 0.0 0.0 0.00 0.00 0.00 67 723.1
20260507060148 57 0.0 0.0 0.00 0.00 0.00 69 722.2
20260507054636 58 0.0 0.0 0.00 0.00 0.00 69 722.3
20260507053124 58 0.0 0.0 0.00 0.00 0.00 70 722.7
20260507051613 58 0.0 0.0 0.00 0.00 0.00 71 722.3
20260507044549 57 0.0 0.0 0.00 0.00 0.00 74 721.8
20260507043037 56 0.0 0.0 0.00 0.00 0.00 76 721.2
20260507041526 55 0.0 0.0 0.00 0.00 0.00 76 720.6
20260507040014 55 0.0 0.0 0.00 0.00 0.00 75 720.9
20260507034502 56 0.0 0.0 0.00 0.00 0.00 74 721.3
20260507032950 56 0.0 0.0 0.00 0.00 0.00 73 721.6
20260507031439 57 0.0 0.0 0.00 0.00 0.00 72 722.0
20260507025927 58 0.0 0.0 0.00 0.00 0.00 70 722.4